1282348829467,30.5718
1282348889467,30.4753
1282348949467,30.5353
1282349009467,30.3616
1282349069467,30.4506
1282349129467,30.4094
1282349189467,30.5176
1282349249467,30.5676
1282349309467,30.5037
1282349369467,30.4656
1282349429467,30.5026
1282349489467,30.4578
1282349549467,30.3888
1282349609467,30.4400
1282349669467,30.3491
1282349729467,30.5265
1282349789467,30.5755
1282349849467,30.4613
1282349909467,30.4322
1282349969467,30.4492
1282350029467,30.4541
1282350089467,30.4461
1282350149467,30.4150
1282350209467,30.4793
1282350269467,30.4947
1282350329467,30.4071
1282350389467,30.4674
1282350449467,30.4256
1282350509467,30.4906
1282350569467,30.4480
1282350629467,30.5112
1282350689467,30.4159
1282350749467,30.4591
1282350809467,30.4143
1282350869467,30.5004
1282350929467,30.4376
1282350989467,30.5462
1282351049467,30.5379
1282351109467,30.5138
1282351169467,30.4150
1282351229467,30.4758
1282351289467,30.5159
1282351349467,30.5782
1282351409467,30.5315
1282351469467,30.5662
1282351529467,30.4462
1282351589467,30.4732
1282351649467,30.4662
1282351709467,30.4732
1282351769467,30.5065
1282351829467,30.5383
1282351889467,30.4736
1282351949467,30.4910
1282352009467,30.5472
1282352069467,30.4278
1282352129467,30.5190
1282352189467,30.5376
1282352249467,30.5920
1282352309467,30.4693
1282352369467,30.4618
1282352429476,30.5504
1282352489476,30.5196
1282352549476,30.4702
1282352609476,30.5360
1282352669476,30.5774
1282352729476,30.6065
1282352789476,30.5323
1282352849476,30.5374
1282352909476,30.5201
1282352969476,30.6095
1282353029476,30.5703
1282353089476,30.4528
1282353149476,30.5359
1282353209476,30.4738
1282353269476,30.5426
1282353329476,30.5731
1282353389476,30.6129
1282353449476,30.5042
1282353509476,30.6059
1282353569476,30.4976
1282353629476,30.4710
1282353689476,30.5042
1282353749476,30.4928
1282353809476,30.5187
1282353869476,30.4990
1282353929476,30.5648
1282353989476,30.5046
1282354049476,30.5461
1282354109476,30.4527
1282354169476,30.5893
1282354229476,30.5671
1282354289476,30.5037
1282354349476,30.5776
1282354409476,30.4811
1282354469476,30.6763
1282354529476,30.5547
1282354589476,30.4986
1282354649476,30.5541
1282354709476,30.5428
1282354769476,30.5865
1282354829476,30.5274
1282354889476,30.5194
1282354949476,30.5291
1282355009476,30.6040
1282355069476,30.6363
1282355129476,30.6593
1282355189476,30.5331
1282355249476,30.5376
1282355309476,30.5665
1282355369476,30.5432
1282355429476,30.5546
1282355489476,30.4972
1282355549476,30.5494
1282355609476,30.5350
1282355669476,30.5781
1282355729476,30.6021
1282355789476,30.5556
1282355849476,30.5555
1282355909476,30.5599
1282355969476,30.6373
1282356029485,30.5880
1282356089485,30.5915
1282356149485,30.6173
1282356209485,30.7381
1282356269485,30.5466
1282356329485,30.6312
1282356389485,30.5735
1282356449485,30.6586
1282356509485,30.5884
1282356569485,30.6147
1282356629485,30.5258
1282356689485,30.5985
1282356749485,30.6667
1282356809485,30.6984
1282356869485,30.6843
1282356929485,30.7031
1282356989485,30.6345
1282357049485,30.6383
1282357109485,30.6659
1282357169485,30.6903
1282357229485,30.6204
1282357289485,30.7486
1282357349485,30.5662
1282357409485,30.6792
1282357469485,30.5906
1282357529485,30.6423
1282357589485,30.5976
1282357649485,30.6150
1282357709485,30.6173
1282357769485,30.5866
1282357829485,30.6863
1282357889485,30.5482
1282357949485,30.5912
1282358009485,30.6359
1282358069485,30.6208
1282358129485,30.5294
1282358189485,30.5821
1282358249485,30.6237
1282358309485,30.4861
1282358369485,30.5744
1282358429485,30.6378
1282358489485,30.6367
1282358549485,30.5305
1282358609485,30.6247
1282358669485,30.6645
1282358729485,30.6109
1282358789485,30.6957
1282358849485,30.7046
1282358909485,30.5870
1282358969485,30.5760
1282359029485,30.7379
1282359089485,30.7521
1282359149485,30.7136
1282359209485,30.5810
1282359269485,30.6509
1282359329485,30.6731
1282359389485,30.6685
1282359449485,30.5297
1282359509485,30.8254
1282359569485,30.7784
1282359629494,30.6334
1282359689494,30.6104
1282359749494,30.7043
1282359809494,30.7350
1282359869494,30.6796
1282359929494,30.7187
1282359989494,30.6976
1282360049494,30.7558
1282360109494,30.7221
1282360169494,30.7114
1282360229494,30.8383
1282360289494,30.7547
1282360349494,30.7391
1282360409494,30.7189
1282360469494,30.6746
1282360529494,30.7100
1282360589494,30.6646
1282360649494,30.6900
1282360709494,30.7579
1282360769494,30.8758
1282360829494,30.7714
1282360889494,30.8518
1282360949494,30.7546
1282361009494,30.7568
1282361069494,30.6872
1282361129494,30.7992
1282361189494,30.7527
1282361249494,30.8258
1282361309494,30.7927
1282361369494,30.7342
1282361429494,30.6968
1282361489494,30.7848
1282361549494,30.7456
1282361609494,30.6900
1282361669494,30.7564
1282361729494,30.7514
1282361789494,30.6985
1282361849494,30.6741
1282361909494,30.7589
1282361969494,30.7373
1282362029494,30.7462
1282362089494,30.7234
1282362149494,30.7358
1282362209494,30.6641
1282362269494,30.6751
1282362329494,30.6922
1282362389494,30.6342
1282362449494,30.6645
1282362509494,30.6557
1282362569494,30.6553
1282362629494,30.6657
1282362689494,30.7260
1282362749494,30.7338
1282362809494,30.7368
1282362869494,30.6783
1282362929494,30.8374
1282362989494,30.7563
1282363049494,30.6569
1282363109494,30.6475
1282363169494,30.6898
1282363229503,30.7465
1282363289503,30.8092
1282363349503,30.7298
1282363409503,30.7028
1282363469503,30.7773
1282363529503,30.6353
1282363589503,30.6313
1282363649503,30.7402
1282363709503,30.6521
1282363769503,30.8121
1282363829503,30.7549
1282363889503,30.6665
1282363949503,30.7032
1282364009503,30.6953
1282364069503,30.6838
1282364129503,30.7081
1282364189503,30.6465
1282364249503,30.6129
1282364309503,30.6353
1282364369502,30.7017
1282364429502,30.6736
1282364489502,30.6970
1282364549502,30.6423
1282364609503,30.7453
1282364669503,30.6129
1282364729503,30.5768
1282364789503,30.6452
1282364849503,30.6894
1282364909503,30.6183
1282364969503,30.6381
1282365029503,30.6385
1282365089503,30.6319
1282365149503,30.7318
1282365209503,30.6749
1282365269503,30.6253
1282365329503,30.6724
1282365389503,30.5364
1282365449503,30.6962
1282365509503,30.5843
1282365569503,30.5321
1282365629503,30.5933
1282365689502,30.5807
1282365749502,30.6384
1282365809502,30.6904
1282365869502,30.6449
1282365929503,30.6170
1282365989503,30.5822
1282366049503,30.6066
1282366109503,30.6450
1282366169503,30.5927
1282366229503,30.5629
1282366289503,30.6943
1282366349503,30.6520
1282366409503,30.6935
1282366469503,30.6686
1282366529503,30.5767
1282366589503,30.5709
1282366649503,30.6468
1282366709503,30.5471
1282366769503,30.6517
1282366829511,30.6321
1282366889511,30.5813
1282366949511,30.6906
1282367009511,30.6036
1282367069511,30.5422
1282367129511,30.5471
1282367189511,30.5356
1282367249511,30.6142
1282367309511,30.6641
1282367369511,30.6048
1282367429511,30.5484
1282367489511,30.6565
1282367549511,30.6387
1282367609511,30.6492
1282367669511,30.5730
1282367729511,30.5824
1282367789511,30.5827
1282367849511,30.5429
1282367909511,30.5489
1282367969511,30.5122
1282368029511,30.6233
1282368089511,30.6924
1282368149511,30.6126
1282368209511,30.6179
1282368269511,30.5172
1282368329511,30.5670
1282368389511,30.6522
1282368449511,30.6279
1282368509511,30.5917
1282368569511,30.5973
1282368629511,30.5604
1282368689511,30.5847
1282368749511,30.5102
1282368809511,30.5505
1282368869511,30.5585
1282368929511,30.5679
1282368989511,30.5480
1282369049511,30.5458
1282369109511,30.4970
1282369169511,30.5384
1282369229511,30.5820
1282369289511,30.5507
1282369349511,30.5746
1282369409511,30.4906
1282369469511,30.4650
1282369529511,30.5462
1282369589511,30.5713
1282369649511,30.5951
1282369709511,30.4245
1282369769511,30.5521
1282369829511,30.4288
1282369889511,30.5086
1282369949511,30.4582
1282370009511,30.4709
1282370069511,30.5379
1282370129511,30.5611
1282370189511,30.5444
1282370249511,30.4340
1282370309511,30.4237
1282370369511,30.5658
1282370429520,30.5116
1282370489520,30.4530
1282370549520,30.5327
1282370609520,30.4644
1282370669520,30.5762
1282370729520,30.5714
1282370789520,30.4980
1282370849520,30.5413
1282370909520,30.5326
1282370969520,30.5685
1282371029520,30.6423
1282371089520,30.6443
1282371149520,30.5463
1282371209520,30.5610
1282371269520,30.5980
1282371329520,30.4910
1282371389520,30.5425
1282371449520,30.4750
1282371509520,30.5498
1282371569520,30.5508
1282371629520,30.5309
1282371689520,30.6198
1282371749520,30.5616
1282371809520,30.6264
1282371869520,30.5635
1282371929520,30.4329
1282371989520,30.5452
1282372049520,30.5014
1282372109520,30.6678
1282372169520,30.4977
1282372229520,30.6156
1282372289520,30.5378
1282372349520,30.6475
1282372409520,30.6542
1282372469520,30.4795
1282372529520,30.5508
1282372589520,30.6459
1282372649520,30.7464
1282372709520,30.5583
1282372769520,30.5685
1282372829520,30.5915
1282372889520,30.6137
1282372949520,30.4875
1282373009520,30.4902
1282373069520,30.5547
1282373129520,30.6699
1282373189520,30.5768
1282373249520,30.4974
1282373309520,30.6419
1282373369520,30.5880
1282373429520,30.5377
1282373489520,30.6695
1282373549520,30.6920
1282373609520,30.5167
1282373669520,30.5225
1282373729520,30.6259
1282373789520,30.6171
1282373849520,30.6174
1282373909520,30.5352
1282373969520,30.5907
1282374029529,30.6282
1282374089529,30.5357
1282374149529,30.5748
1282374209529,30.6341
1282374269529,30.5941
1282374329529,30.5397
1282374389529,30.7017
1282374449529,30.7330
1282374509529,30.5273
1282374569529,30.4838
1282374629529,30.5578
1282374689529,30.5376
1282374749529,30.5972
1282374809529,30.5227
1282374869529,30.6439
1282374929529,30.6464
1282374989529,30.5574
1282375049529,30.6503
1282375109529,30.5955
1282375169529,30.6421
1282375229529,30.5488
1282375289529,30.4867
1282375349529,30.4931
1282375409529,30.5464
1282375469529,30.5439
1282375529529,30.5211
1282375589529,30.5413
1282375649529,30.6162
1282375709529,30.5690
1282375769529,30.5913
1282375829529,30.5205
1282375889529,30.6722
1282375949529,30.5870
1282376009529,30.5359
1282376069529,30.4857
1282376129529,30.6246
1282376189529,30.5618
1282376249529,30.4798
1282376309529,30.5614
1282376369529,30.4210
1282376429529,30.4976
1282376489529,30.5825
1282376549529,30.4532
1282376609529,30.4840
1282376669529,30.5609
1282376729529,30.5608
1282376789529,30.4814
1282376849529,30.6065
1282376909529,30.5491
1282376969529,30.6171
1282377029529,30.5384
1282377089529,30.4831
1282377149529,30.4946
1282377209529,30.5186
1282377269529,30.6718
1282377329529,30.5702
1282377389529,30.4781
1282377449529,30.5439
1282377509529,30.5653
1282377569529,30.4796
1282377629538,30.4491
1282377689538,30.5607
1282377749538,30.4766
1282377809538,30.3815
1282377869538,30.5509
1282377929538,30.4390
1282377989538,30.5610
1282378049538,30.6028
1282378109538,30.4858
1282378169538,30.4657
1282378229538,30.3780
1282378289538,30.5465
1282378349538,30.4027
1282378409538,30.4358
1282378469538,30.4210
1282378529538,30.4489
1282378589538,30.3542
1282378649538,30.5154
1282378709538,30.4229
1282378769538,30.4622
1282378829538,30.4800
1282378889538,30.4685
1282378949538,30.4367
1282379009538,30.4409
1282379069538,30.5325
1282379129538,30.4951
1282379189538,30.4460
1282379249538,30.4650
1282379309538,30.4682
1282379369538,30.5731
1282379429538,30.4708
1282379489538,30.4154
1282379549538,30.3406
1282379609538,30.4051
1282379669538,30.5276
1282379729538,30.4311
1282379789538,30.5005
1282379849538,30.4059
1282379909538,30.4618
1282379969538,30.4932
1282380029538,30.4255
1282380089538,30.4675
1282380149538,30.4677
1282380209538,30.5116
1282380269538,30.4343
1282380329538,30.4633
1282380389538,30.4568
1282380449538,30.4206
1282380509538,30.4238
1282380569538,30.4589
1282380629538,30.4768
1282380689538,30.4330
1282380749538,30.3701
1282380809538,30.4303
1282380869538,30.4379
1282380929538,30.4628
1282380989538,30.4988
1282381049538,30.4299
1282381109538,30.5181
1282381169538,30.4538
1282381229548,30.4040
1282381289548,30.4463
1282381349548,30.5321
1282381409548,30.5023
1282381469548,30.3929
1282381529548,30.3774
1282381589548,30.4313
1282381649548,30.3695
1282381709548,30.4162
1282381769548,30.4525
1282381829548,30.3711
1282381889548,30.4231
1282381949548,30.3658
1282382009548,30.5179
1282382069548,30.4530
1282382129548,30.3695
1282382189548,30.4244
1282382249548,30.4119
1282382309548,30.3648
1282382369548,30.3403
1282382429548,30.3909
1282382489548,30.4987
1282382549548,30.3858
1282382609548,30.4844
1282382669548,30.3819
1282382729548,30.4277
1282382789548,30.3703
1282382849548,30.4634
1282382909548,30.5739
1282382969548,30.4592
1282383029548,30.3597
1282383089548,30.3820
1282383149548,30.3600
1282383209548,30.3780
1282383269548,30.4590
1282383329548,30.3567
1282383389548,30.3892
1282383449548,30.4070
1282383509548,30.4042
1282383569548,30.3752
1282383629548,30.4506
1282383689548,30.3187
1282383749548,30.3721
1282383809548,30.4165
1282383869548,30.4352
1282383929548,30.2711
1282383989548,30.2813
1282384049548,30.3800
1282384109548,30.3384
1282384169548,30.2823
1282384229548,30.3393
1282384289548,30.3627
1282384349548,30.3384
1282384409548,30.3331
1282384469548,30.2946
1282384529548,30.2665
1282384589548,30.3353
1282384649548,30.3544
1282384709548,30.3600
1282384769548,30.3524
1282384829557,30.1878
1282384889557,30.2660
1282384949557,30.3381
1282385009557,30.3389
1282385069557,30.2853
1282385129557,30.3444
1282385189557,30.2086
1282385249557,30.2973
1282385309557,30.4407
1282385369557,30.4198
1282385429557,30.2508
1282385489557,30.2648
1282385549557,30.2471
1282385609557,30.3467
1282385669557,30.3224
1282385729557,30.2491
1282385789557,30.2717
1282385849557,30.3155
1282385909557,30.3519
1282385969557,30.2080
1282386029557,30.3584
1282386089557,30.2402
1282386149557,30.3501
1282386209557,30.2968
1282386269557,30.2760
1282386329557,30.2468
1282386389557,30.2250
1282386449557,30.2270
1282386509557,30.2347
1282386569557,30.1208
1282386629557,30.1983
1282386689557,30.1697
1282386749557,30.1666
1282386809557,30.2497
1282386869557,30.2044
1282386929557,30.1210
1282386989557,30.2535
1282387049557,30.2739
1282387109557,30.2148
1282387169557,30.2327
1282387229557,30.2367
1282387289557,30.1899
1282387349557,30.2226
1282387409557,30.2265
1282387469557,30.1847
1282387529557,30.1597
1282387589557,30.2804
1282387649557,30.1655
1282387709557,30.2076
1282387769557,30.1545
1282387829557,30.2036
1282387889557,30.1787
1282387949557,30.2011
1282388009557,30.1770
1282388069557,30.1859
1282388129557,30.1747
1282388189557,30.1609
1282388249557,30.1743
1282388309557,30.2075
1282388369557,30.1287
1282388429566,30.1627
1282388489566,30.1569
1282388549566,30.2788
1282388609566,30.2488
1282388669566,30.1622
1282388729566,30.1520
1282388789566,30.1310
1282388849566,30.1954
1282388909566,30.1541
1282388969566,30.2056
1282389029566,30.1661
1282389089566,30.1317
1282389149566,30.2238
1282389209566,30.2653
1282389269566,30.2344
1282389329566,30.1523
1282389389566,30.2278
1282389449566,30.2057
1282389509566,30.1999
1282389569566,30.1975
1282389629566,30.2825
1282389689566,30.2909
1282389749566,30.2180
1282389809566,30.2969
1282389869566,30.2059
1282389929566,30.1743
1282389989566,30.2097
1282390049566,30.3009
1282390109566,30.2194
1282390169566,30.1718
1282390229566,30.1507
1282390289566,30.1724
1282390349566,30.1430
1282390409566,30.2538
1282390469566,30.1792
1282390529566,30.2010
1282390589566,30.2520
1282390649566,30.1979
1282390709566,30.1203
1282390769566,30.2357
1282390829566,30.2610
1282390889566,30.1777
1282390949566,30.1283
1282391009566,30.1807
1282391069566,30.2005
1282391129566,30.1467
1282391189566,30.2486
1282391249566,30.2237
1282391309566,30.1542
1282391369566,30.2048
1282391429566,30.1538
1282391489566,30.1993
1282391549566,30.1718
1282391609566,30.3492
1282391669566,30.2175
1282391729566,30.1773
1282391789566,30.2744
1282391849566,30.2313
1282391909566,30.1469
1282391969566,30.1687
1282392029576,30.1907
1282392089576,30.1917
1282392149576,30.1652
1282392209576,30.1137
1282392269576,30.0954
1282392329576,30.1793
1282392389576,30.1123
1282392449576,30.2574
1282392509576,30.2343
1282392569576,30.0885
1282392629576,30.1168
1282392689576,30.1737
1282392749576,30.0952
1282392809576,30.0686
1282392869576,30.0975
1282392929576,30.1367
1282392989576,30.1239
1282393049576,30.1396
1282393109576,30.0478
1282393169576,30.0349
1282393229576,30.0725
1282393289576,30.1187
1282393349576,30.1094
1282393409576,30.0553
1282393469576,30.0225
1282393529576,30.0825
1282393589576,30.1474
1282393649576,30.0805
1282393709576,30.0610
1282393769576,30.0756
1282393829576,30.1316
1282393889576,30.1757
1282393949576,30.0955
1282394009576,29.9813
1282394069576,30.1085
1282394129576,30.0297
1282394189576,29.9748
1282394249576,30.0376
1282394309576,30.0702
1282394369576,30.0495
1282394429576,30.0184
1282394489576,30.0472
1282394549576,30.0490
1282394609576,30.0323
1282394669576,30.0542
1282394729576,30.0912
1282394789576,30.0090
1282394849576,30.0708
1282394909576,29.9953
1282394969576,30.0011
1282395029576,30.0153
1282395089576,30.0418
1282395149576,29.9146
1282395209576,29.9706
1282395269576,30.0742
1282395329576,30.0523
1282395389576,29.9484
1282395449576,30.0095
1282395509576,29.9596
1282395569576,30.0030
1282395629585,29.8908
1282395689585,30.0674
1282395749585,30.0238
1282395809585,30.3716
1282395869585,30.0231
1282395929585,29.9972
1282395989585,30.0461
1282396049585,29.9805
1282396109585,30.0284
1282396169585,30.0615
1282396229585,30.0336
1282396289585,30.0743
1282396349585,30.0966
1282396409585,30.1598
1282396469585,30.0509
1282396529585,30.0496
1282396589585,30.1040
1282396649585,30.0740
1282396709585,30.0854
1282396769585,30.1199
1282396829585,29.9693
1282396889585,30.0845
1282396949585,30.0295
1282397009585,30.0460
1282397069585,29.9921
1282397129585,29.9945
1282397189585,30.0615
1282397249585,30.0294
1282397309585,30.0498
1282397369585,30.0883
1282397429585,30.1289
1282397489585,30.1826
1282397549585,30.1068
1282397609585,30.1675
1282397669585,30.2109
1282397729585,30.1312
1282397789585,30.1227
1282397849585,30.2012
1282397909585,30.1477
1282397969585,30.1472
1282398029585,30.1384
1282398089585,30.1438
1282398149585,30.1396
1282398209585,30.0789
1282398269585,30.1690
1282398329585,30.1938
1282398389585,30.0516
1282398449585,30.1574
1282398509585,30.2023
1282398569585,30.1401
1282398629585,30.1469
1282398689585,30.1318
1282398749585,30.2269
1282398809585,30.2085
1282398869585,30.2826
1282398929585,30.2194
1282398989585,30.1770
1282399049585,30.2382
1282399109585,30.2786
1282399169585,30.2974
1282399229595,30.2768
1282399289595,30.2951
1282399349595,30.2282
1282399409595,30.1565
1282399469595,30.2431
1282399529595,30.1873
1282399589595,30.2437
1282399649595,30.2056
1282399709595,30.2509
1282399769595,30.3171
1282399829595,30.2795
1282399889595,30.2361
1282399949595,30.2636
1282400009595,30.3099
1282400069595,30.2627
1282400129595,30.3157
1282400189595,30.2622
1282400249595,30.3428
1282400309595,30.3098
1282400369595,30.3130
1282400429595,30.2236
1282400489595,30.3744
1282400549595,30.3100
1282400609595,30.3580
1282400669595,30.2529
1282400729595,30.3193
1282400789595,30.4043
1282400849595,30.2655
1282400909595,30.2522
1282400969595,30.3886
1282401029595,30.2410
1282401089595,30.4038
1282401149595,30.3644
1282401209595,30.4047
1282401269595,30.4000
1282401329595,30.3613
1282401389595,30.3588
1282401449595,30.3728
1282401509595,30.3194
1282401569595,30.3661
1282401629595,30.3452
1282401689595,30.3912
1282401749595,30.4018
1282401809595,30.4655
1282401869595,30.4053
1282401929595,30.4097
1282401989595,30.3914
1282402049595,30.3965
1282402109595,30.3706
1282402169595,30.4155
1282402229595,30.2865
1282402289595,30.3245
1282402349595,30.4303
1282402409595,30.2998
1282402469595,30.3406
1282402529595,30.3687
1282402589595,30.3738
1282402649595,30.2695
1282402709595,30.3703
1282402769595,30.2101
1282402829605,30.3530
1282402889605,30.3130
1282402949605,30.3163
1282403009605,30.3303
1282403069605,30.3173
1282403129605,30.2897
1282403189605,30.2683
1282403249605,30.2959
1282403309605,30.2482
1282403369605,30.2734
1282403429605,30.3486
1282403489605,30.3313
1282403549605,30.1876
1282403609605,30.2728
1282403669605,30.2486
1282403729605,30.3404
1282403789605,30.2446
1282403849605,30.2542
1282403909605,30.2746
1282403969605,30.2274
1282404029605,30.2338
1282404089605,30.1931
1282404149605,30.1526
1282404209605,30.2119
1282404269605,30.2200
1282404329605,30.2124
1282404389605,30.2383
1282404449605,30.2073
1282404509605,30.2334
1282404569605,30.2841
1282404629605,30.1764
1282404689605,30.2114
1282404749605,30.1920
1282404809605,30.2860
1282404869605,30.2062
1282404929605,30.2549
1282404989605,30.0658
1282405049605,30.3160
1282405109605,30.3015
1282405169605,30.1923
1282405229605,30.2005
1282405289605,30.2351
1282405349605,30.1796
1282405409605,30.2721
1282405469605,30.1983
1282405529605,30.2756
1282405589605,30.1794
1282405649605,30.2606
1282405709605,30.2487
1282405769605,30.2108
1282405829605,30.2536
1282405889605,30.2556
1282405949605,30.2292
1282406009605,30.2852
1282406069605,30.2363
1282406129605,30.2210
1282406189605,30.3132
1282406249605,30.1987
1282406309605,30.1760
1282406369605,30.2248
1282406429616,30.3067
1282406489616,30.1662
1282406549616,30.2921
1282406609616,30.2076
1282406669616,30.2830
1282406729616,30.3427
1282406789616,30.3148
1282406849616,30.2797
1282406909616,30.3194
1282406969616,30.3202
1282407029616,30.3202
1282407089616,30.2035
1282407149616,30.2648
1282407209616,30.2230
1282407269616,30.2989
1282407329616,30.2966
1282407389616,30.2112
1282407449616,30.2645
1282407509616,30.1971
1282407569616,30.2980
1282407629616,30.2925
1282407689616,30.2030
1282407749616,30.3345
1282407809616,30.2533
1282407869616,30.3300
1282407929616,30.2990
1282407989616,30.2639
1282408049616,30.3704
1282408109616,30.2809
1282408169616,30.2935
1282408229616,30.3199
1282408289616,30.3069
1282408349616,30.2393
1282408409616,30.3123
1282408469616,30.2698
1282408529616,30.3466
1282408589616,30.2399
1282408649616,30.2636
1282408709616,30.3275
1282408769616,30.1478
1282408829616,30.2597
1282408889616,30.3170
1282408949616,30.1912
1282409009616,30.3749
1282409069616,30.3164
1282409129616,30.2516
1282409189616,30.3364
1282409249616,30.2041
1282409309616,30.2780
1282409369616,30.2472
1282409429616,30.3459
1282409489616,30.3576
1282409549616,30.2769
1282409609616,30.3911
1282409669616,30.2852
1282409729616,30.3356
1282409789616,30.2496
1282409849616,30.2518
1282409909616,30.2509
1282409969616,30.3187
1282410029626,30.2883
1282410089626,30.2598
1282410149626,30.2271
1282410209626,30.3004
1282410269626,30.2309
1282410329626,30.2421
1282410389626,30.2985
1282410449626,30.3438
1282410509626,30.3428
1282410569626,30.3352
1282410629626,30.2847
1282410689626,30.2646
1282410749626,30.2850
1282410809626,30.2023
1282410869626,30.3104
1282410929626,30.1919
1282410989626,30.2618
1282411049626,30.3596
1282411109626,30.2739
1282411169626,30.2353
1282411229626,30.2149
1282411289626,30.3086
1282411349626,30.1967
1282411409626,30.3146
1282411469626,30.2777
1282411529626,30.1997
1282411589626,30.2222
1282411649626,30.3019
1282411709626,30.2153
1282411769626,30.2018
1282411829626,30.2712
1282411889626,30.1286
1282411949626,30.2289
1282412009626,30.1998
1282412069626,30.2558
1282412129626,30.2435
1282412189626,30.3087
1282412249626,30.2647
1282412309626,30.2098
1282412369626,30.2212
1282412429626,30.2669
1282412489626,30.1704
1282412549626,30.2311
1282412609626,30.2336
1282412669626,30.2534
1282412729626,30.1830
1282412789626,30.2137
1282412849626,30.1659
1282412909626,30.1356
1282412969626,30.1395
1282413029626,30.2505
1282413089626,30.1329
1282413149626,30.1630
1282413209626,30.1702
1282413269626,30.0847
1282413329626,30.0758
1282413389626,30.0714
1282413449626,30.1554
1282413509626,29.9843
1282413569626,30.1043
1282413629637,30.1578
1282413689637,30.0574
1282413749637,30.0434
1282413809637,30.1705
1282413869637,30.1392
1282413929637,30.1583
1282413989637,30.1338
1282414049637,30.1819
1282414109637,30.1359
1282414169637,30.0559